Regional Weather Roundup
Issued by NWS Wakefield, VA

Home | Current Version | Previous Version | Graphics & Text | Print | Product List | Glossary On
Versions: 1 2 3 4 5 6 7 8 9 10 11 12 13 14 15 16 17 18 19 20 21 22 23 24 25 26 27 28
000
ASUS41 KAKQ 271915
RWRAKQ

REGIONAL WEATHER ROUNDUP
NATIONAL WEATHER SERVICE WAKEFIELD VA
300 PM EDT TUE JUN 27 2017

Note: "fair" indicates few or no clouds below 12,000 feet with no
significant weather and/or obstructions to visibility. * = Denotes
station may not report precipitation (e.g., rain,snow,etc.),
thunder or fog.

VAZ042-051-052>054-056-272000-
NORTHERN VIRGINIA

CITY           SKY/WX    TMP DP  RH WIND       PRES   REMARKS
WASH NATIONAL  PTSUNNY   81  50  33 W10       29.99F
DULLES         PTSUNNY   77  47  34 W12       30.00F
FORT BELVOIR   PTSUNNY   80  48  32 N8        29.99F
QUANTICO       PTSUNNY   80  56  43 S7        30.00F
FREDERICKSBRG* PTSUNNY   79  52  39 CALM      29.99S
STAFFORD*      MOSUNNY   81  48  31 W5        30.04F
WARRENTON      PTSUNNY   78  44  29 W3        30.01R
CULPEPER*      MOSUNNY   79  54  41 N5        30.02S
MANASSAS*      PTSUNNY   79  53  40 W8        30.01F
LEESBURG*      MOSUNNY   81  52  36 NW15G22   30.01F
WINCHESTER     MOSUNNY   75  45  33 NW12G20   30.02F
FRONT ROYAL*   CLEAR     79  43  27 W10G18    30.01F
LURAY*         PTCLDY    77  41  27 W7        30.02S
$$

VAZ048-049-060>072-079>083-272000-
CENTRAL AND SOUTH CENTRAL VIRGINIA

CITY           SKY/WX    TMP DP  RH WIND       PRES   REMARKS
RICHMOND       PTSUNNY   82  50  32 VRB5      30.01S
CHESTERFIELD*  FAIR      81  51  35 W7        30.03R
PETERSBURG*    MOSUNNY   80  47  30 CALM      30.03S
HANOVER        MOSUNNY   81  51  35 W9        30.02F
TAPPAHANNOCK*  SUNNY     83  41  22 SW7       30.01F
QUINTON*       FAIR      80  51  36 CALM      30.00F
CHARLOTTSVILLE MOSUNNY   81  48  31 VRB3      30.02S
GORDONSVILLE*  PTCLDY    81  51  35 S7        30.01F
ORANGE*        MOSUNNY   81  50  34 SW9       30.01S
LOUISA*        PTSUNNY   82  54  36 SW7       30.01S
BUMPASS*       FAIR      80  51  36 W8        30.02S
FARMVILLE*     PTSUNNY   80  38  22 W6        30.03S
CREWE*         FAIR      78  45  30 NW5       30.03S
FORT PICKETT*  FAIR      78  44  29 W9        30.04S
CHASE CITY*    FAIR      77  53  43 W3        30.05S
CLARKSVILLE*   FAIR      77  55  47 W5        30.05S
SOUTH HILL*    SUNNY     79  54  41 SW3       30.10S
LAWRENCEVILLE* FAIR      80  53  38 W5        30.04S
EMPORIA*       MOSUNNY   79  52  38 W5        30.03F
$$

VAZ088>098-272000-
SOUTHEAST VIRGINIA

CITY           SKY/WX    TMP DP  RH WIND       PRES   REMARKS
NORFOLK        SUNNY     81  63  54 N8        30.00F
VIRGINIA BEACH PTSUNNY   78  61  55 E8        30.00F
NORFOLK NAVAL  NOT AVBL
WEST POINT*    SUNNY     82  48  30 NW6       30.02S
SALUDA*        FAIR      80  49  34 NW3       30.00F
NEWPORT NEWS   PTSUNNY   80  61  52 NE8       30.00F
LANGLEY AFB    MOSUNNY   78  60  53 E8        30.00F
FORT EUSTIS    SUNNY     85  57  38 N6        29.99S
WILLIAMSBURG*  SUNNY     84  55  37 CALM      30.02S
HR EXEC AP*    FAIR      82  61  47 NW5       29.97F
FRANKLIN*      NOT AVBL
US460-WAKEFLD  MOSUNNY   82  55  39 N7        30.01S
$$

VAZ020-022-025-037-045-272000-
WEST CENTRAL AND SOUTHWEST VIRGINIA

CITY           SKY/WX    TMP DP  RH WIND       PRES   REMARKS
STAUNTON*      CLOUDY    74  42  31 NW5       30.06S
WAYNESBORO*    CLOUDY    75  44  32 SW6       30.06S
HOT SPRINGS VA MOSUNNY   63  32  31 W10G17    30.15S
LYNCHBURG      CLOUDY    76  52  43 S9        30.07F
DANVILLE       MOSUNNY   76  56  49 NW6       30.07S
SOUTH BOSTON*  FAIR      76  50  39 NW5       30.06F
MARTINSVILLE   CLOUDY    74  52  46 W3        30.11S
ROANOKE        CLOUDY    76  46  34 W13       30.09S
BLACKSBURG     CLOUDY    69  45  41 W9        30.15S
DUBLIN*        CLOUDY    71  38  29 W8        30.15S
MARION*        CLOUDY    69  43  38 NW12G17   30.18F
HILLSVILLE*    PTSUNNY   66  39  37 NW13      30.15R
RICHLANDS*     MOCLDY    67   7   9 NW7       30.17S
WISE*          PTSUNNY   70  46  43 CALM      30.18F
ABINGDON*      MOSUNNY   73  51  46 W6        30.15F
$$

MDZ021>025-VAZ099-100-272000-
SOUTHERN MARYLAND AND THE DELMARVA PENINSULA

CITY           SKY/WX    TMP DP  RH WIND       PRES   REMARKS
PATUXENT RIVER PTSUNNY   78  54  43 E6        29.99F
BAY BRIDGE APT NOT AVBL
LEONARDTOWN    SUNNY     79  52  38 W7        30.01F
DOVER          MOSUNNY   81  55  41 SW15      29.96F
GEORGETOWN     MOSUNNY   80  52  37 W8        29.99F
EASTON         MOSUNNY   81  50  34 NW13      30.03F
CAMBRIDGE      SUNNY     79  52  38 NW8       30.00F
SALISBURY      SUNNY     82  51  34 SW6       29.98F
OCEAN CITY     SUNNY     73  60  63 SE6       30.00S
WALLOPS ISLAND MOSUNNY   79  61  53 S10       30.00S
ACCOMACK*      MOSUNNY   81  53  37 N5        30.01S
$$

NCZ012>017-030>032-272000-
NORTH CENTRAL AND EASTERN NORTH CAROLINA

CITY           SKY/WX    TMP DP  RH WIND       PRES   REMARKS
ROANOKE RAPIDS FAIR      81  55  41 W3        30.03S
RALEIGH        MOSUNNY   82  54  37 VRB6      30.05F
ELIZABETH CITY MOSUNNY   83  63  50 NE3       30.00S
AHOSKIE*         N/A     80  57  44 CALM      30.01F
EDENTON*       MOSUNNY   84  61  45 CALM      30.01S
CURRITUCK*     MOSUNNY   80  64  57 NE7       30.01F
KILL DEVIL HLS MOSUNNY   83  63  49 E7        29.99S
MANTEO         PTSUNNY   80  62  54 S3        30.01S
CAPE HATTERAS  NOT AVBL
TARBORO*       NOT AVBL
GOLDSBORO      MOSUNNY   83  55  38 CALM      30.01F
WASHINGTON     PTSUNNY  N/A N/A N/A NW6       30.02S
GREENVILLE     PTSUNNY   82  57  42 CALM      30.04F
NEW BERN       PTSUNNY   84  61  45 E3        30.02S
WILMINGTON     CLOUDY    87  58  37 E6        30.01F
$$

VAZ048-272000-
ELSEWHERE

CITY           SKY/WX    TMP DP  RH WIND       PRES   REMARKS
HARRISBURG PA  MOSUNNY   76  51  41 W16       29.97S
BALTIMORE      LGT RAIN  76  51  41 W9        29.99S
ANNAPOLIS      MOSUNNY   76  55  48 NW9       29.98F
ANDREWS AFB    MOSUNNY   78  47  32 W7        29.99F
PHILADELPHIA   MOSUNNY   79  51  37 SW14G20   29.96F
HENDERSON NC   MOSUNNY   77  52  41 W5        30.06S
GREENSBORO     CLOUDY    76  55  48 NW6       30.07F
ROCKY MOUNT    SUNNY     83  55  38 N7        30.03F
$$

VAZ100-272000-
MARINE

STATION/POSITION TIME  TEMP    WIND        PRES    WAVE   SWELL
                       AIR SEA DIR/SP/G            HT/PER HT/PER
                 (UTC) (F)     (DEG/KT/KT) (MB)    (FT/S) (FT/S)
BRANDYWINE LGT   1836   72     130/  4/  5 1015.8F
CAPE MAY NJ      1836   76 67  310/  2/  4 1015.3F
LEWES DE         1836   73 69   50/  7/  7 1015.3F
15NM E FENWICK I 1850   71 72   50/  2/  2 1016.1F   1/ 7   2/ 7
OCEAN-CITY-INLET 1836   72 66  140/  6/  8 1016.0F
WACHAPREAGUE VA  1836   74 81  140/  6/  8 1015.9S
THOMAS POINT MD  1900   77 78  270/  4/  6   N/A
GOOSES REEF MD   1850   76     100/  6/  8 1016.7F
COVE POINT MD    1836   75     140/  6/  7 1016.6F
SOLOMONS ISLAND  1836   76 80  140/  8/  9   N/A
BISHOPS HEAD MD  1836   76 83  290/ 11/ 12 1016.0F
PINEY POINT MD   1848          330/  7/  9   N/A
POTOMAC MD       1850   76     170/  2/  4 1015.3F
CAMBRIDGE MD     1836   81 83              1016.7F
LEWISETTA VA     1836   78 79   10/  5/  7 1016.0F
RAPPAHANNOCK LGT 1848           10/  5/  7 1016.8F
STINGRAY PT      1850   76      90/  4/  6 1016.4F
YORK RVR RNG VA  1836   77     110/  6/  8 1016.5F
YORKTOWN VA      1842   76 79   80/  9/ 10 1015.7F
JAMESTOWN VA     1850   79     300/  4/  6   N/A
DOMINION TERM VA 1842   76     110/  6/  8 1016.5F
KIPTOPEKE VA     1848      75  320/  9/ 10   N/A
CHES BAY BRIDGE  1842   72 74   80/  6/  7 1016.1F
CAPE HENRY VA    1842   73      80/  8/  9   N/A
WILLOUBY STN VA  1842   75      40/  7/  9 1016.1F
S CRANEY ISL VA  1842   77     360/  7/  9 1015.8F
CAPE HENRY BUOY  1830      72                N/A     2/ 8
1ST LANDING BUOY 1850   73                 1016.3F
CAPE CHARLES BUO 1851      71                N/A     1/11
64NM E OF VA BCH 1850   75 76  280/  2/  4 1016.7F   1/ 8   2/ 8
DUCK PIER NC     1842   74 71   40/ 10/ 10 1015.6F
44100 DUCK FRF   1805      75                N/A     1/ 8
OREGON INLET NC  1848          120/  6/ 10   N/A
HATTERAS NC      1842   82 78  280/  3/  4 1016.5R
DIAMOND SHLS NC  1850   80 82   CALM  /  2 1016.6R   2/ 6   2/ 6
CAPE LOOKOUT NC  1800   80     160/  7/  8 1016.4F
$$




USA.gov is the U.S. government's official web portal to all federal, state and local government web resources and services.